Regional Weather Roundup
Issued by NWS

Home | Current Version | Previous Version | Graphics & Text | Print | Product List | Glossary On
Versions: 1 2 3 4 5 6 7 8 9 10 11 12 13 14 15 16 17 18 19 20 21 22 23 24 25 26 27 28 29 30 31 32 33 34 35 36 37 38 39 40 41 42 43 44 45 46 47 48 49 50
315
ASUS43 KMKX 162011
RWRWI

WISCONSIN REGIONAL WEATHER ROUNDUP
NATIONAL WEATHER SERVICE MILWAUKEE/SULLIVAN WI
200 PM CST MON JAN 16 2017

NOTE: "FAIR" INDICATES FEW OR NO CLOUDS BELOW 12,000 FEET WITH NO
SIGNIFICANT WEATHER AND/OR OBSTRUCTIONS TO VISIBILITY.

WIZ001-002-006>008-014>016-023>028-162100-
NORTHWEST WISCONSIN

CITY           SKY/WX    TMP DP  RH WIND       PRES   REMARKS
SUPERIOR ARPT  CLOUDY    32  19  58 CALM      30.09F
ASHLAND        CLOUDY    36  20  52 CALM      30.09F
HAYWARD        CLOUDY    30  20  66 S8        30.08F WCI  22
SIREN          CLOUDY    32  18  57 CALM      30.08F
CUMBERLAND     CLOUDY    23  19  86 SE3       30.07F
RICE LAKE      CLOUDY    21  15  76 CALM      30.10F
CHETEK         CLOUDY    26  17  68 CALM      30.10F
LADYSMITH      CLOUDY    24  18  78 CALM      30.11F
EAU CLAIRE     CLOUDY    28  17  63 NE7       30.09F WCI  21
MENOMONIE      CLOUDY    26  18  71 CALM      30.09F
NEW RICHMOND   CLOUDY    27  17  63 E7        30.07F WCI  20
OSCEOLA        CLOUDY    30  18  61 E5        30.11F WCI  25
$$

WIZ003>005-009-010-017-018-162100-
NORTH CENTRAL WISCONSIN

CITY           SKY/WX    TMP DP  RH WIND       PRES   REMARKS
MANITOWISH WTR CLOUDY    30  18  61 S3        30.06F
ARBOR VITAE    CLOUDY    32  21  64 S3        30.08F
WOODRUFF       CLOUDY    32  21  64 S3        30.08F
RHINELANDER    CLOUDY    30  16  56 SW5       30.09F WCI  25
EAGLE RIVER    CLOUDY    33  20  59 CALM      30.07F
LAND O LAKES   CLOUDY    34  19  55 CALM      30.09F
PHILLIPS       CLOUDY    29  19  66 CALM      30.08F
TOMAHAWK       CLOUDY    31  17  55 CALM      30.10F
MEDFORD        CLOUDY    29  15  55 E3        30.08F
MERRILL        CLOUDY    27  15  62 CALM        N/A
$$

WIZ029-030-035-036-043>047-162100-
CENTRAL WISCONSIN

CITY           SKY/WX    TMP DP  RH WIND       PRES   REMARKS
WAUSAU         CLOUDY    27  15  61 CALM      30.09F
MOSINEE        CLOUDY    28  18  64 NE5       30.11F WCI  23
MARSHFIELD     CLOUDY    26  15  63 NE7       30.08F WCI  18
STEVENS POINT  CLOUDY    29  15  55 E5        30.11F WCI  24
WAUPACA        CLOUDY    33  20  58 CALM      30.14F
WAUTOMA        MIX PCPN  31  25  78 NE9       30.12F WCI  23
WISC RAPIDS    CLOUDY    31  18  58 E6        30.11F WCI  25
CAMP DOUGLAS   DRIZZLE   31  28  88 E6        30.07F WCI  26
$$

WIZ011>013-019>022-031-037>040-048>050-162100-
NORTHEAST WISCONSIN

CITY           SKY/WX    TMP DP  RH WIND       PRES   REMARKS
ANTIGO         CLOUDY    23  15  70 CALM      30.10F
SHAWANO        CLOUDY    29  19  65 CALM      30.14F
OCONTO         CLOUDY    30  18  62 SE3       30.16F
STURGEON BAY   CLOUDY    33  18  53 S3        30.17F
GREEN BAY      CLOUDY    34  23  64 CALM      30.15F
MANITOWOC      MIX PCPN  32  21  64 E5        30.17F WCI  27
APPLETON       DRIZZLE   32  18  55 E3        30.13F
CLINTONVILLE   CLOUDY    28  18  64 CALM      30.14F
OSHKOSH        MIX PCPN  31  21  66 E5        30.13F WCI  26
$$

WIZ032>034-041-042-053>061-162100-
SOUTHWEST WISCONSIN

CITY           SKY/WX    TMP DP  RH WIND       PRES   REMARKS
LA CROSSE      FRZ RAIN  33  25  72 NW6       30.07F WCI  28
SPARTA         MIX PCPN  31  29  90 E6        30.08F WCI  26
VIROQUA        CLOUDY    32  32 100 E8        30.03F WCI  25
BOSCOBEL       FRZ RAIN  33  31  92 NE5       30.07F FOG     WCI  29
PRAIRIE DU CHI MIX PCPN  33  32  96 E7        30.03F WCI  27
PLATTEVILLE    CLOUDY    33  33 100 E10       30.02F WCI  25
$$

WIZ056-057-062-063-064-067-068-162100-
SOUTH CENTRAL WISCONSIN

CITY           SKY/WX    TMP DP  RH WIND       PRES   REMARKS
REEDSBURG      DRIZZLE   31  31 100 E3        30.08F
BARABOO/DELLS  MIX PCPN  32  30  94 E9        30.07F WCI  24
LONE ROCK      LGT RAIN  33  30  88 E9        30.07F FOG     WCI  25
MINERAL POINT  RAIN      34  34 100 E7        30.04S WCI  28
MADISON        FRZ RAIN  32  31  96 E9        30.08F FOG     WCI  24
MIDDLETON      CLOUDY    33  33 100 E6        30.08F WCI  28
WATERTOWN      MIX PCPN  33  33 100 E7        30.10F WCI  26
MONROE         MIX PCPN  32  32 100 E8        30.05S VSB 1/4 WCI  25
JANESVILLE     RAIN      36  36 100 E9        30.07F WCI  29
$$

WIZ051-052-058>065-066-070>072-162100-
SOUTHEAST WISCONSIN

CITY           SKY/WX    TMP DP  RH WIND       PRES   REMARKS
MILWAUKEE      LGT RAIN  36  32  85 E8        30.13F WCI  30
WAUKESHA       CLOUDY    32  30  93 E9        30.12F FOG     WCI  24
MILWAUKEE/TIMM LGT RAIN  34  30  86 E6        30.14F FOG     WCI  29
RACINE         LGT RAIN  35  32  88 E8        30.14F FOG     WCI  29
KENOSHA        RAIN      35  33  92 E8        30.11F VSB 1/2 WCI  29
FOND DU LAC    MIX PCPN  35  26  69 E6        30.13F WCI  30
SHEBOYGAN      LGT RAIN  34  28  79 E6        30.15F WCI  29
WEST BEND      LGT RAIN  32  32 100 E7        30.12F WCI  26
JUNEAU         LGT RAIN  33  31  94 E8        30.11F WCI  26
$$

LSZ147-162-162100-
LAKE SUPERIOR

STATION/POSITION TIME  TEMP    WIND        PRES    WAVE
                       AIR SEA DIR/SP/G            HT/PER
                 (UTC) (F)     (DEG/KT/KT) (MB)    (FT/S)
DEVILS ISLAND    1900   31     240/ 14/ 15 1020.2F
PORT WING        1930   31     310/  3/  4 1019.3F
SAXON HARBOR     1940   33      40/  3/  5 1019.3F
$$

LMZ867-665-643>646-162100-
LAKE MICHIGAN

STATION/POSITION TIME  TEMP    WIND        PRES    WAVE
                       AIR SEA DIR/SP/G            HT/PER
                 (UTC) (F)     (DEG/KT/KT) (MB)    (FT/S)
NORTHPORT PIER   1940   29      CALM  /  1 1021.3F
SISTER BAY       1950   33     200/  5/  6   N/A
KEWAUNEE LAKESHO 1948   31      70/  3/  3 1021.3F
SHEBOYGAN LAKESH 2000   31      40/  4/  4 1021.8F
PORT WASHINGTON  1930   33      40/  6/  7 1022.0F
MILWAUKEE LAKESH 1950   34      70/  8/  8   N/A
KENOSHA   LAKESH 2000   35      90/  5/  6 1020.0
$$

TC  - TEMPERATURE IN CELSIUS
VSB - VISIBILITY IN STATUTE MILES
WCI - WIND CHILL INDEX
HX  - HEAT INDEX





USA.gov is the U.S. government's official web portal to all federal, state and local government web resources and services.